DW6276 Weather Reports


Display with metric or nautical units.
time (UTC)temp
F
wind
direction
speed
MPH
gust
MPH
rain 1hr
in
rain 24hr
in
rain mn
in
humidity
%
barometer
mb
20260509105016 48 225 4.0 6.0 0.00 0.00 0.00 63 1004.3
20260509104016 48 248 4.0 6.0 0.00 0.00 0.00 64 1004.5
20260509103016 48 270 1.0 2.0 0.00 0.00 0.00 61 1004.2
20260509102016 49 315 1.0 2.0 0.00 0.00 0.00 59 1004.4
20260509101016 49 315 2.0 3.0 0.00 0.00 0.00 59 1004.3
20260509100016 49 338 1.0 2.0 0.00 0.00 0.00 58 1004.1
20260509095016 48 315 2.0 3.0 0.00 0.00 0.00 58 1004.3
20260509094016 48 315 2.0 3.0 0.00 0.00 0.00 58 1004.2
20260509093016 48 315 2.0 3.0 0.00 0.00 0.00 58 1003.9
20260509092016 48 338 2.0 3.0 0.00 0.00 0.00 59 1003.9
20260509091016 48 338 3.0 4.0 0.00 0.00 0.00 57 1003.9
20260509090016 47 338 4.0 6.0 0.00 0.00 0.00 61 1003.9
20260509085016 46 0 6.0 15.0 0.00 0.00 0.00 64 1003.4
20260509084016 43 0.0 0.0 0.00 0.00 0.00 72 1002.8
20260509083036 42 0.0 0.0 0.00 0.00 0.00 73 1002.5
20260509082016 42 0.0 0.0 0.00 0.00 0.00 69 1002.4
20260509081016 42 0.0 0.0 0.00 0.00 0.00 67 1002.5
20260509080016 42 0.0 0.0 0.00 0.00 0.00 67 1002.6
20260509075016 43 0.0 0.0 0.00 0.00 0.00 64 1002.5
20260509074016 43 0.0 1.0 0.00 0.00 0.00 64 1002.5
20260509073016 43 0.0 0.0 0.00 0.00 0.00 63 1002.4
20260509072016 43 0.0 0.0 0.00 0.00 0.00 64 1002.5
20260509071016 43 0.0 1.0 0.00 0.00 0.00 65 1002.5
20260509070016 43 0.0 2.0 0.00 0.00 0.00 63 1002.6
20260509065016 42 0.0 2.0 0.00 0.00 0.00 63 1002.8
20260509064016 42 0.0 2.0 0.00 0.00 0.00 61 1002.9
20260509063016 43 203 2.0 2.0 0.00 0.00 0.00 60 1003.0
20260509062016 43 0.0 2.0 0.00 0.00 0.00 60 1003.1
20260509061036 44 203 1.0 2.0 0.00 0.00 0.00 59 1003.1
20260509060036 44 203 2.0 2.0 0.00 0.00 0.00 58 1003.3
20260509055016 44 0.0 0.0 0.00 0.00 0.00 57 1003.4
20260509054015 45 0.0 1.0 0.00 0.00 0.00 57 1003.6
20260509053015 46 0.0 0.0 0.00 0.00 0.00 54 1003.7
20260509052015 47 0.0 1.0 0.00 0.00 0.00 53 1003.8
20260509051015 47 0.0 2.0 0.00 0.00 0.00 49 1003.8
20260509050016 49 0.0 2.0 0.00 0.00 0.00 46 1004.0
20260509045016 51 0.0 2.0 0.00 0.00 0.00 45 1004.3
20260509044016 53 0.0 0.0 0.00 0.00 0.00 44 1004.4
20260509043016 55 0.0 1.0 0.00 0.00 0.00 41 1004.4
20260509042016 55 338 1.0 2.0 0.00 0.00 0.00 40 1004.5
20260509041016 56 338 3.0 4.0 0.00 0.00 0.00 39 1004.5
20260509040016 57 0 2.0 3.0 0.00 0.00 0.00 38 1004.5
20260509035016 59 338 3.0 4.0 0.00 0.00 0.00 36 1004.6
20260509034016 59 315 3.0 4.0 0.00 0.00 0.00 36 1004.5
20260509033016 60 315 2.0 4.0 0.00 0.00 0.00 35 1004.4
20260509032016 61 315 3.0 6.0 0.00 0.00 0.00 34 1004.2
20260509031016 61 315 5.0 6.0 0.00 0.00 0.00 33 1004.3
20260509030016 61 315 4.0 6.0 0.00 0.00 0.00 33 1004.1
20260509025016 62 338 6.0 12.0 0.00 0.00 0.00 31 1004.2
20260509024036 63 338 8.0 13.0 0.00 0.00 0.00 30 1004.1
20260509023016 64 338 8.0 12.0 0.00 0.00 0.00 30 1003.9
20260509022056 64 338 11.0 15.0 0.00 0.00 0.00 29 1003.8
20260509021016 65 338 9.0 13.0 0.00 0.00 0.00 29 1003.6
20260509020016 65 338 10.0 15.0 0.00 0.00 0.00 28 1003.3
20260509015016 66 338 11.0 16.0 0.00 0.00 0.00 27 1003.0
20260509014016 66 338 10.0 18.0 0.00 0.00 0.00 26 1002.9
20260509013016 67 315 9.0 13.0 0.00 0.00 0.00 25 1002.8
20260509012016 67 338 10.0 16.0 0.00 0.00 0.00 25 1002.7
20260509011036 68 338 10.0 15.0 0.00 0.00 0.00 24 1002.6
20260509010016 69 338 11.0 18.0 0.00 0.00 0.00 24 1002.5
20260509005016 69 338 13.0 18.0 0.00 0.00 0.00 24 1002.3
20260509004016 70 338 10.0 15.0 0.00 0.00 0.00 24 1002.4
20260509003016 70 315 14.0 21.0 0.00 0.00 0.00 24 1002.1
20260509002016 71 315 13.0 23.0 0.00 0.00 0.00 24 1002.1
20260509001016 71 315 13.0 19.0 0.00 0.00 0.00 24 1002.2
20260509000016 71 315 13.0 21.0 0.00 0.00 0.00 24 1001.9
20260508235016 71 315 14.0 22.0 0.00 0.00 0.00 24 1002.0
20260508234016 72 315 14.0 22.0 0.00 0.00 0.00 23 1002.0
20260508233016 72 315 16.0 31.0 0.00 0.00 0.00 23 1002.0
20260508232016 72 315 15.0 25.0 0.00 0.00 0.00 23 1001.9
20260508231016 73 315 14.0 23.0 0.00 0.00 0.00 23 1002.0
20260508230016 73 338 13.0 22.0 0.00 0.00 0.00 23 1001.9
20260508225035 73 338 17.0 34.0 0.00 0.00 0.00 23 1001.8
20260508224015 73 293 16.0 25.0 0.00 0.00 0.00 24 1001.8
20260508223015 73 315 11.0 17.0 0.00 0.00 0.00 25 1002.0
20260508222015 72 338 9.0 12.0 0.00 0.00 0.00 27 1002.0
20260508221015 72 315 13.0 21.0 0.00 0.00 0.00 26 1002.0
20260508220015 72 315 13.0 20.0 0.00 0.00 0.00 27 1002.2
20260508215016 72 315 14.0 21.0 0.00 0.00 0.00 26 1002.2
20260508214015 73 293 11.0 17.0 0.00 0.00 0.00 26 1002.3
20260508213036 73 293 12.0 19.0 0.00 0.00 0.00 26 1002.4
20260508211016 72 293 12.0 22.0 0.00 0.00 0.00 26 1002.6
20260508210016 73 315 14.0 22.0 0.00 0.00 0.00 24 1002.9
20260508205015 72 293 12.0 20.0 0.00 0.00 0.00 24 1002.9
20260508204015 74 293 10.0 16.0 0.00 0.00 0.00 22 1003.2
20260508203015 75 270 11.0 18.0 0.00 0.00 0.00 23 1003.3
20260508202015 74 270 11.0 18.0 0.00 0.00 0.00 21 1003.5
20260508201015 73 270 11.0 18.0 0.00 0.00 0.00 22 1003.6
20260508200015 72 270 12.0 18.0 0.00 0.00 0.00 21 1003.8
20260508195056 71 293 12.0 18.0 0.00 0.00 0.00 21 1003.9
20260508194055 72 293 13.0 19.0 0.00 0.00 0.00 21 1004.1
20260508193015 73 270 9.0 16.0 0.00 0.00 0.00 22 1004.2
20260508192015 71 315 12.0 18.0 0.00 0.00 0.00 20 1004.3
20260508191015 71 293 9.0 23.0 0.00 0.00 0.00 22 1004.5
20260508190015 71 293 8.0 15.0 0.00 0.00 0.00 21 1004.5
20260508185015 72 270 7.0 14.0 0.00 0.00 0.00 21 1004.6
20260508184015 70 315 7.0 11.0 0.00 0.00 0.00 21 1004.8
20260508183015 71 315 11.0 16.0 0.00 0.00 0.00 21 1004.9
20260508182037 71 338 15.0 22.0 0.00 0.00 0.00 20 1004.9
20260508181017 70 338 12.0 19.0 0.00 0.00 0.00 21 1005.1
20260508180037 71 315 13.0 17.0 0.00 0.00 0.00 21 1005.3
20260508175017 71 293 12.0 21.0 0.00 0.00 0.00 20 1005.5
20260508174017 70 315 13.0 20.0 0.00 0.00 0.00 22 1005.6
20260508173017 70 315 12.0 18.0 0.00 0.00 0.00 20 1005.9
20260508172017 70 293 10.0 15.0 0.00 0.00 0.00 23 1006.1
20260508171017 70 315 11.0 21.0 0.00 0.00 0.00 22 1006.1
20260508170017 70 270 8.0 13.0 0.00 0.00 0.00 23 1006.3
20260508165017 69 270 8.0 12.0 0.00 0.00 0.00 22 1006.5
20260508164017 68 315 10.0 18.0 0.00 0.00 0.00 22 1006.5
20260508163017 69 270 6.0 11.0 0.00 0.00 0.00 23 1006.8
20260508162017 67 315 11.0 16.0 0.00 0.00 0.00 23 1006.9
20260508161017 67 315 9.0 15.0 0.00 0.00 0.00 22 1007.0
20260508160057 66 248 7.0 12.0 0.00 0.00 0.00 28 1007.2
20260508155037 64 293 7.0 12.0 0.00 0.00 0.00 28 1007.3
20260508154017 65 270 9.0 14.0 0.00 0.00 0.00 27 1007.4
20260508153017 67 270 7.0 14.0 0.00 0.00 0.00 28 1007.7
20260508152017 64 248 6.0 10.0 0.00 0.00 0.00 31 1007.7
20260508151017 62 225 6.0 10.0 0.00 0.00 0.00 34 1007.7
20260508150017 61 225 6.0 10.0 0.00 0.00 0.00 34 1008.0
20260508145017 60 248 6.0 10.0 0.00 0.00 0.00 36 1008.0
20260508144037 58 248 5.0 7.0 0.00 0.00 0.00 37 1008.1
20260508143017 58 248 5.0 9.0 0.00 0.00 0.00 37 1008.2
20260508142037 58 225 6.0 10.0 0.00 0.00 0.00 38 1008.3
20260508141017 57 248 5.0 9.0 0.00 0.00 0.00 38 1008.5
20260508140016 56 248 7.0 11.0 0.00 0.00 0.00 39 1008.6
20260508135016 55 225 9.0 12.0 0.00 0.00 0.00 38 1008.6
20260508134017 55 225 9.0 12.0 0.00 0.00 0.00 39 1008.6
20260508133017 53 225 8.0 13.0 0.00 0.00 0.00 40 1008.9
20260508132036 52 225 8.0 13.0 0.00 0.00 0.00 40 1008.9
20260508131017 52 225 9.0 12.0 0.00 0.00 0.00 40 1008.9
20260508130017 51 225 7.0 10.0 0.00 0.00 0.00 40 1008.9
20260508125017 50 225 6.0 9.0 0.00 0.00 0.00 41 1008.9
20260508124017 49 0 7.0 10.0 0.00 0.00 0.00 44 1008.8
20260508123017 48 225 6.0 8.0 0.00 0.00 0.00 45 1008.9
20260508122036 46 203 5.0 8.0 0.00 0.00 0.00 48 1008.8
20260508121036 45 203 4.0 5.0 0.00 0.00 0.00 51 1008.8
20260508120016 43 203 2.0 4.0 0.00 0.00 0.00 54 1008.8
20260508115037 41 0.0 2.0 0.00 0.00 0.00 60 1008.7
20260508114016 40 0.0 2.0 0.00 0.00 0.00 59 1008.6
20260508113016 39 203 1.0 2.0 0.00 0.00 0.00 59 1008.6
20260508112016 39 203 1.0 2.0 0.00 0.00 0.00 59 1008.7
20260508111016 39 203 2.0 3.0 0.00 0.00 0.00 59 1008.7
20260508110016 38 203 2.0 3.0 0.00 0.00 0.00 59 1008.6